Location: Ripley
(48.3812°N, 115.4473°W)
Time: 05:19:34
(UTC+00:00)

O/OREOS (USA 219) - Pass Details

Date: 05 July 2022
Orbit: 621 x 646 km, 72.0° (Epoch: 22 May)

Event Time Altitude Azimuth Distance (km) Brightness Sun altitude
Rises 08:40:49 0° 316° (NW) 2,967 ? -17.8°
Reaches altitude 10° 08:44:13 10° 290° (WNW) 2,051 ? -17.7°
Maximum altitude 08:46:22 13° 262° (W) 1,837 ? -17.6°
Enters shadow 08:46:55 13° 254° (WSW) 1,850 ? -17.6°
